Theta_e
296 295 294 292 290 289 288 286 284 283 284 284 284 284 284 284 284 284 284 283 283 283
293 294 292 290 289 287 287 284 283 283 283 283 283 283 283 283 282 283 283 282 282 281
292 292 290 288 286 286 284 283 282 282 283 282 282 282 283 282 282 282 281 281 280 280
290 290 288 287 285 284 283 283 282 282 282 282 281 281 281 281 281 280 280 280 280 279
289 289 287 286 284 283 282 282 282 281 282 281 281 281 281 280 280 280 279 279 279 278
287 286 286 285 284 283 282 281 281 281 281 280 280 280 280 280 279 279 279 279 278 278
286 285 286 284 283 282 282 281 281 281 280 280 280 279 279 279 279 279 279 279 278 278
287 286 285 284 283 282 281 281 281 280 280 279 279 279 279 279 279 279 278 278 278 278
285 285 284 283 282 281 280 280 280 279 279 279 278 282 283 280 279 278 277 277 277 277
285 283 283 282 281 280 279 279 279 279 279 278 279 284 284 282 279 278 278 277 277 276
283 283 282 281 280 280 280 279 279 278 279 279 278 285 285 283 279 279 278 277 277 277
282 282 281 280 280 280 279 279 279 279 279 279 278 285 286 283 278 278 277 277 277 277
282 281 280 281 280 280 280 279 279 278 279 279 278 285 286 284 280 279 278 277 277 278
281 280 280 281 280 280 279 278 278 278 278 278 278 282 286 287 281 281 279 278 278 277
Wind_Speed
11 8 8 11 10 9 9 9 10 10 10 10 10 9 8 7 6 8 7 9 7 6
9 10 10 11 10 8 7 7 9 10 12 11 10 10 9 7 8 8 7 8 8 7
10 10 10 10 11 10 8 10 10 10 11 11 10 10 10 8 9 10 7 6 9 8
11 11 11 11 11 10 10 11 11 11 12 12 12 10 10 10 11 11 10 8 9 8
12 11 11 10 10 11 11 10 10 9 11 10 12 11 11 12 10 12 11 10 9 9
12 12 13 12 13 13 13 13 11 12 13 13 13 12 11 11 11 10 10 10 9 10
13 13 13 13 14 15 15 15 14 14 13 12 12 12 11 11 11 10 8 8 8 9
12 12 11 12 13 13 14 14 14 14 12 12 11 9 11 11 11 10 9 7 7 7
14 13 13 13 13 13 14 14 14 14 15 14 9 19 21 15 10 9 9 7 6 6
13 14 14 13 13 14 14 13 15 14 13 14 12 23 23 20 9 9 8 8 7 7
12 12 12 13 14 13 13 15 14 13 13 12 9 23 22 19 9 7 8 8 8 8
12 11 12 13 13 12 12 13 14 13 13 13 10 22 22 17 8 7 7 7 7 8
10 11 12 12 11 8 7 7 6 7 8 9 9 20 22 18 6 7 6 6 7 14
9 10 10 9 8 8 8 8 7 7 6 8 10 13 24 23 9 7 7 7 8 8
Wind_Direction
171 175 177 174 169 175 179 175 166 156 149 144 143 140 137 134 131 127 120 118 104 108
174 173 172 169 169 172 162 156 164 161 148 145 142 140 138 133 127 118 116 117 116 110
178 175 169 164 172 171 153 154 159 157 147 143 141 142 138 129 126 124 123 126 126 120
177 177 170 173 170 164 152 158 164 161 149 153 149 148 136 137 140 139 139 140 137 131
174 173 172 172 166 159 159 160 157 157 154 162 152 153 150 148 151 150 153 151 142 141
178 178 181 175 170 171 163 165 160 167 164 168 163 157 158 158 158 158 159 157 151 152
183 185 183 177 175 174 171 167 169 174 171 168 167 162 160 157 160 161 158 156 157 164
181 184 180 180 180 177 176 176 174 168 168 162 173 167 163 163 164 161 156 162 161 177
174 177 181 176 178 180 179 174 171 176 172 170 180 176 172 164 161 155 163 159 175 181
180 177 179 174 174 180 181 175 179 177 173 171 179 177 179 170 158 167 163 167 183 193
179 181 176 175 180 181 180 181 180 181 176 168 184 177 179 169 159 164 167 181 193 200
174 172 173 179 180 182 179 183 182 176 171 172 178 179 176 166 164 174 170 187 194 205
164 162 169 174 174 173 176 169 152 149 166 166 170 181 179 176 169 171 188 200 210 216
155 157 156 145 142 144 134 131 135 149 156 163 174 187 186 190 184 186 193 201 213 219